Regional Weather Roundup
Issued by NWS

Home | Current Version | Previous Version | Graphics & Text | Print | Product List | Glossary On
Versions: 1 2 3 4 5 6 7 8 9 10 11 12 13 14 15 16 17 18 19 20 21 22 23 24 25 26 27 28 29 30 31 32 33 34 35 36 37 38 39 40 41 42 43 44 45 46 47 48 49 50
000
ASUS43 KDMX 220001
RWRIA

WEATHER ROUNDUP FOR IOWA
NATIONAL WEATHER SERVICE DES MOINES IA
700 PM CDT WED JUN 21 2017

NOTE: "FAIR" INDICATES FEW OR NO CLOUDS BELOW 12,000 FEET WITH NO
SIGNIFICANT WEATHER AND/OR OBSTRUCTIONS TO VISIBILITY.

* - THESE STATIONS ARE NOT NWS STATIONS...THUS NOT UNDER NWS
QUALITY CONTROL.  THEY ALSO DO NOT REPORT WEATHER SUCH
AS PRECIPITATION OR FOG.

IAZ001>003-012>014-020>022-031>034-043>046-220100-
   NORTHWEST IOWA

CITY           SKY/WX    TMP DP  RH WIND       PRES   REMARKS
CARROLL *      SUNNY     91  64  40 S16       29.70S HX  93
CHEROKEE *     SUNNY     89  72  57 SE3       29.67F HX  95
DENISON *      SUNNY     91  66  43 S12G23    29.69S HX  94
LE MARS *      MOSUNNY   88  72  58 SE5       29.66S HX  94
ORANGE CITY *  SUNNY     88  72  58 S3        29.68S HX  94
SHELDON *      SUNNY     86  70  58 SE7       29.68S HX  90
SIOUX CITY     SUNNY     96  71  44 SW12      29.62F HX 103
6HR MIN TEMP:  84; 6HR MAX TEMP:  96;

SPENCER        MOSUNNY   87  71  58 S5        29.70F HX  93
6HR MIN TEMP:  75; 6HR MAX TEMP:  87; 6HR PCP: TRACE;

STORM LAKE *   MOSUNNY   88  72  58 S9        29.69F HX  94
$$

IAZ055>058-069>071-079>083-090>094-220100-
   SOUTHWEST IOWA

CITY           SKY/WX    TMP DP  RH WIND       PRES   REMARKS
ATLANTIC *     SUNNY     90  63  40 S21G30    29.71R HX  90
AUDUBON *      SUNNY     90  64  43 S15       29.72S HX  91
CLARINDA *     SUNNY     88  63  42 S16G25    29.75S HX  88
COUNCIL BLFS * SUNNY     91  64  40 S18G26    29.69S HX  93
CRESTON *      SUNNY     88  63  42 SW24G31   29.77R HX  88
HARLAN  *      SUNNY     90  64  43 S18       29.72F HX  91
LAMONI         SUNNY     87  66  49 S14G23    29.77F HX  89
6HR MIN TEMP:  86; 6HR MAX TEMP:  89;

RED OAK *      SUNNY     90  61  37 S22G30    29.71S HX  89
SHENANDOAH *   SUNNY     90  61  37 S21G28    29.72R HX  89
$$

IAZ047>049-059>061-072>074-084-220100-
   CENTRAL IOWA

CITY           SKY/WX    TMP DP  RH WIND       PRES   REMARKS
AMES           SUNNY     87  69  54 S13       29.74S HX  91
6HR MIN TEMP:  74; 6HR MAX TEMP:  87;

ANKENY *       SUNNY     90  64  43 S13G24    29.76R HX  91
BOONE *        SUNNY     88  66  48 S7G15     29.73F HX  90
CHARITON *     SUNNY     88  66  48 S16G22    29.77S HX  90
DES MOINES     MOSUNNY   90  62  39 S16G24    29.74S HX  90
6HR MIN TEMP:  76; 6HR MAX TEMP:  93;

GRINNELL*      MOSUNNY   84  71  65 SE15      29.79F HX  88
KNOXVILLE *    MOSUNNY   88  66  48 S13G20    29.76R HX  90
MARSHALLTOWN   SUNNY     78  72  81 SE12      29.76F HX  80
6HR MIN TEMP:  70; 6HR MAX TEMP:  81; 6HR PCP:  0.01;

NEWTON *       SUNNY     86  68  54 S12G18    29.77F HX  89
PELLA *        MOSUNNY   89  66  46 S9G20     29.78S HX  91
PERRY *          N/A     89  63  41 S10       29.73S HX  90
$$

IAZ004>006-015-016-023>025-035-036-220100-
   NORTH CENTRAL IOWA

CITY           SKY/WX    TMP DP  RH WIND       PRES   REMARKS
ALGONA *       PTSUNNY   82  75  78 E8        29.72F HX  89
CLARION *        N/A     79  75  89 SE14      29.74F HX  82
ESTHERVILLE    SUNNY     76  70  82 E12       29.72F
6HR MIN TEMP:  69; 6HR MAX TEMP:  77;

FORT DODGE *   PTSUNNY   84  70  61 SE9       29.72F HX  88
MASON CITY     SUNNY     75  66  73 SE9       29.79S
6HR MIN TEMP:  68; 6HR MAX TEMP:  77;

FOREST CITY *    N/A     77  61  57 SE8       29.76F
WEBSTER CITY * SUNNY     84  73  70 SE14      29.71F HX  91
IOWA FALLS *     N/A     78  71  77 SE14      29.77F HX  81
$$

IAZ007>011-017>019-026>030-037>042-050>054-066-220100-
   NORTHEAST IOWA

CITY           SKY/WX    TMP DP  RH WIND       PRES   REMARKS
CEDAR RAPIDS   LGT RAIN  70  70 100 SE16      29.81F
6HR MIN TEMP:  67; 6HR MAX TEMP:  73; 6HR PCP:  0.22;

CHARLES CITY * CLOUDY    72  64  78 SE14      29.80S
CLINTON *      LGT RAIN  74  64  71 S3        29.89R
DECORAH *      CLOUDY    73  61  64 SE9G17    29.82S
DUBUQUE        CLOUDY    71  64  78 S9        29.85F
6HR MIN TEMP:  67; 6HR MAX TEMP:  74; 6HR PCP:  0.01;

MONTICELLO *   CLOUDY    70  66  88 SE8       29.83R
OELWEIN *      CLOUDY    72  66  83 SE13      29.82R
WATERLOO       TSTM      73  69  87 E7        29.76F
6HR MIN TEMP:  66; 6HR MAX TEMP:  73; 6HR PCP:  0.56;

$$

IAZ064-065-067-068-078-220100-
   EAST CENTRAL IOWA

CITY           SKY/WX    TMP DP  RH WIND       PRES   REMARKS
DAVENPORT      CLOUDY    74  68  81 N3        29.90R
6HR MIN TEMP:  66; 6HR MAX TEMP:  77; 6HR PCP:  0.20;

IOWA CITY      TSTM      73  69  87 SE16      29.83F
6HR MIN TEMP:  72; 6HR MAX TEMP:  77; 6HR PCP:  0.15;

MT. PLEASANT * CLOUDY    82  70  66 SE8       29.82S HX  86
MUSCATINE *    LGT RAIN  75  70  83 N12       29.88R
QUAD CITIES    PTSUNNY   78  65  63 NE6       29.87R HX  80
6HR MIN TEMP:  67; 6HR MAX TEMP:  80; 6HR PCP:  0.17;

$$

IAZ062-063-075>077-085>089-095>099-220100-
   SOUTHEAST IOWA

CITY           SKY/WX    TMP DP  RH WIND       PRES   REMARKS
BURLINGTON     MOSUNNY   84  71  65 SE9       29.82F HX  89
6HR MIN TEMP:  74; 6HR MAX TEMP:  87;

FAIRFIELD *    CLOUDY    86  70  58 S12G20    29.81R HX  90
FORT MADISON * MOSUNNY   88  72  58 S10G17    29.83S HX  94
KEOKUK *       SUNNY     88  68  51 S10       29.82S HX  91
OSKALOOSA *      N/A     85  66  53 S9G16     29.80R HX  87
OTTUMWA        SUNNY     86  66  51 S12       29.79R HX  88
6HR MIN TEMP:  79; 6HR MAX TEMP:  88; 6HR PCP: TRACE;

WASHINGTON *   LGT RAIN  77  73  88 E7        29.86R
$$

ABBREVIATIONS USED IN REMARKS
   TC - TEMPERATURES IN CELSIUS
  WCI - WIND CHILL INDEX
   HX - HEAT INDEX
  VSB - VISIBILITY
$$





USA.gov is the U.S. government's official web portal to all federal, state and local government web resources and services.